Back to catalog

HIMAWARI 1 AKM

AliveMEO
NORAD 59985·ROCKET BODY·🇯🇵 Japan

Launched Jul 14, 1977 from Cape Canaveral Space Force Station

Loading…

Next Passes (next 24 hours)

TLE

FreshSource: Space-Track

Epoch: Sep 14, 2026, 00:41 UTC

1 59985U 77065GQ  26257.02872001 -.00000320  00000-0  00000-0 0  9999
2 59985   3.9806 272.0562 0275278 126.3519 235.8973  1.01125675 47349

Track HIMAWARI 1 AKM in real time with AllMySat

Download on the App Store